Theta_e
308 305 304 303 303 302 301 299 298 298 298 298 297 297 297 297 297 297 296 296 296 295 295 295 296 296 296 295 295 295 295 294 294 293 293 292 292 291 291 290 289 289 289 288 288 288 288 287 287 287 286 286 286 285 285 285 285 284 284 284 284 284 284 284 284 285 285 285 284 284 284 283 283 282 281 281 281 281 280 280 279 279 279 279 278
307 305 304 303 302 302 300 299 298 297 297 297 297 296 296 296 296 296 296 296 295 295 295 295 295 295 295 295 295 294 294 294 293 293 292 292 292 291 290 290 289 289 288 288 288 288 287 287 287 286 286 286 285 285 285 285 284 284 284 284 284 284 284 284 284 284 285 285 284 284 284 283 282 282 281 281 281 281 280 280 279 279 279 278 278
307 305 304 303 302 301 300 298 297 297 297 297 296 296 296 296 296 296 295 295 295 295 295 295 295 294 294 294 294 293 293 293 293 292 292 292 291 291 290 290 289 289 288 288 288 287 287 287 286 286 286 285 285 285 285 284 284 284 283 283 284 283 283 283 283 283 284 285 284 284 283 283 282 281 281 281 280 280 280 279 279 279 279 279 279
308 305 304 303 302 301 300 298 297 297 297 297 296 296 295 295 295 295 295 295 295 295 294 294 294 293 293 293 293 293 293 293 292 292 291 291 291 290 290 290 289 289 288 288 287 287 287 286 286 286 286 285 285 285 285 284 284 283 283 283 283 283 283 283 283 283 283 284 284 283 282 282 282 281 280 280 280 280 279 279 279 279 279 279 279
308 305 304 303 302 302 300 299 298 297 297 297 296 295 295 295 295 294 294 294 294 294 294 294 293 293 292 293 293 293 292 292 292 292 291 291 290 290 290 289 289 288 288 288 287 287 286 286 286 286 285 285 285 285 284 284 284 283 283 283 283 283 283 283 283 283 283 283 283 282 281 281 281 280 280 280 280 280 279 278 278 278 278 278 278
308 306 304 303 302 301 300 299 298 297 297 296 296 295 294 294 294 294 294 294 294 294 294 294 293 292 292 292 292 292 291 291 291 291 291 291 290 290 289 289 288 288 288 287 287 287 286 286 286 286 285 285 285 285 284 284 283 283 283 283 283 283 283 283 283 282 282 282 282 282 281 280 280 280 279 279 279 279 279 279 278 277 277 278 278
308 306 304 303 302 301 300 300 298 297 296 296 295 295 294 294 294 294 294 294 294 294 293 293 293 292 291 291 291 291 291 290 291 291 291 290 290 290 289 289 288 288 288 287 287 287 286 286 286 286 285 285 285 284 284 284 283 283 283 283 283 283 283 283 282 282 282 281 281 280 280 280 280 280 279 278 278 277 277 278 279 278 276 277 278
308 306 304 303 302 301 301 300 298 297 296 295 295 294 294 293 293 293 293 293 293 293 293 293 292 292 291 290 290 290 290 290 290 290 290 290 290 290 289 289 288 288 287 287 287 286 286 286 286 286 285 285 285 284 284 284 283 283 283 283 283 283 282 282 282 281 281 280 280 280 280 280 279 279 279 278 277 277 276 275 276 276 276 275 276
308 306 305 304 302 301 301 299 298 297 296 295 294 294 293 293 293 293 293 293 293 293 292 292 292 291 291 290 290 290 290 290 290 290 290 290 290 289 289 288 288 288 287 287 287 286 286 286 286 285 285 285 285 284 284 284 283 283 283 283 282 282 282 282 281 280 280 280 280 279 279 279 278 278 278 277 276 275 275 274 274 275 275 275 276
308 306 305 304 303 302 301 299 298 297 296 295 294 294 293 293 292 292 292 292 292 292 292 292 291 291 291 291 291 290 290 290 290 290 290 290 290 289 289 288 288 288 287 287 287 286 286 286 286 285 285 285 285 284 284 283 283 282 282 282 282 282 282 281 280 280 280 279 279 278 278 278 277 276 276 276 275 274 274 274 274 274 274 275 277
307 306 305 304 303 302 301 300 298 297 296 296 294 293 293 292 292 292 292 292 292 292 292 291 291 291 291 291 290 290 290 290 290 290 290 290 290 289 289 288 288 288 287 287 287 286 286 286 286 286 285 285 285 284 284 283 282 282 282 282 282 282 281 281 280 279 279 278 277 276 276 276 276 275 275 275 275 274 274 274 274 274 274 275 276
306 306 305 304 304 303 302 300 299 298 297 296 295 294 293 292 292 292 291 291 291 291 291 291 291 291 291 290 290 290 290 289 290 290 290 290 289 289 289 288 288 288 287 287 287 287 287 286 286 286 285 285 285 284 284 283 282 282 282 282 282 281 280 280 279 279 278 277 276 275 275 275 275 274 275 275 275 275 275 274 274 274 274 275 275
306 305 305 304 304 303 302 301 300 299 298 297 295 294 293 292 292 291 291 291 291 291 291 291 291 291 290 290 290 290 289 289 290 291 291 290 289 289 289 288 288 288 288 287 287 287 287 287 287 286 286 285 285 284 284 283 282 282 282 282 281 281 280 279 279 278 277 276 276 275 275 275 274 275 275 275 275 275 275 274 274 274 274 275 275
305 304 304 304 303 303 302 301 300 299 298 297 296 294 293 292 291 291 291 291 291 291 291 291 291 291 290 290 290 290 289 289 290 291 291 290 289 289 289 288 288 288 288 288 287 287 287 287 287 287 286 286 285 284 284 283 282 282 281 281 281 280 280 279 279 279 278 276 275 275 275 274 274 275 275 275 275 275 275 275 275 275 274 274 275
303 303 303 303 303 302 302 301 300 299 298 297 296 294 293 292 291 291 291 291 291 291 291 291 291 290 290 290 290 290 289 290 290 291 291 290 290 290 289 288 288 288 288 288 287 287 287 287 287 287 287 286 285 285 284 283 282 282 281 281 281 280 280 279 279 278 277 276 275 274 274 275 275 275 275 275 275 275 275 275 275 274 274 275 275
303 303 302 302 301 301 301 300 300 299 298 296 295 294 293 292 291 291 291 291 290 290 290 290 290 290 290 290 290 290 290 290 290 291 292 291 290 290 289 288 288 288 288 287 287 287 287 287 287 287 287 286 285 285 284 283 282 282 281 281 280 280 280 280 278 277 276 275 275 275 275 275 275 275 275 275 275 274 275 275 275 274 274 275 275
303 303 302 301 301 300 299 299 298 298 297 296 295 295 294 293 292 291 291 290 290 290 290 290 289 289 289 290 290 290 290 290 290 291 292 291 290 290 290 289 288 288 288 287 287 287 287 287 287 287 287 286 285 284 284 283 282 282 281 280 280 280 280 279 277 277 276 276 275 275 275 275 275 275 275 275 274 274 274 275 274 274 274 275 275
303 303 302 301 300 299 298 298 297 297 297 296 296 295 294 293 292 291 291 290 290 290 289 289 289 289 289 289 289 290 289 289 290 291 292 291 290 290 290 290 289 288 288 287 287 287 287 287 287 287 287 286 285 285 283 282 282 281 281 280 280 280 279 278 277 277 276 276 276 275 275 275 275 275 275 275 274 274 274 274 274 274 274 274 274
304 303 302 301 299 298 298 297 297 297 296 296 295 295 294 293 292 291 291 290 290 289 289 289 289 289 289 289 289 289 289 289 290 291 291 290 290 291 291 290 289 288 288 288 287 287 287 287 287 287 287 286 285 285 283 282 281 281 280 280 280 279 278 278 277 277 277 276 276 276 275 275 275 275 274 274 274 274 274 274 274 274 273 273 273
302 301 300 299 299 298 298 297 297 296 296 295 295 294 294 293 292 292 291 290 290 289 289 288 288 288 289 289 289 289 289 289 289 290 290 290 290 290 290 290 289 288 288 287 287 287 287 287 287 286 286 286 285 285 283 282 281 280 280 280 279 279 278 277 277 277 277 276 276 276 275 275 275 274 274 274 274 274 274 273 273 273 273 273 273
300 299 299 298 298 297 297 297 296 296 295 295 294 294 293 293 292 292 291 291 290 289 289 289 288 288 288 288 288 288 289 289 289 289 290 290 289 289 290 289 289 288 288 287 287 287 287 287 286 286 286 285 285 285 284 282 281 280 280 279 279 278 278 278 278 277 277 276 276 275 275 275 274 274 274 274 274 274 274 273 273 273 272 272 272
298 298 298 297 297 297 297 296 296 295 295 294 294 294 293 293 292 292 291 291 290 290 290 289 288 288 288 288 288 288 288 288 288 288 289 289 289 289 289 289 288 288 287 287 287 287 287 286 286 286 285 285 284 284 284 282 280 279 279 279 278 278 278 278 278 277 276 276 275 275 275 274 274 274 274 274 274 273 273 273 273 273 272 272 272
297 297 297 297 297 297 296 296 296 295 295 294 294 294 293 293 292 292 291 291 291 290 290 290 289 289 288 288 288 288 288 288 288 288 288 288 288 288 288 288 288 287 287 287 287 287 286 286 285 285 285 285 284 284 283 281 280 279 279 279 278 277 277 278 277 276 276 275 275 275 275 274 274 274 274 274 273 273 273 273 273 273 273 273 272
296 296 296 296 296 296 295 295 295 295 294 294 294 293 293 292 292 292 291 291 291 290 290 290 290 289 289 289 288 288 288 288 288 288 288 288 288 288 288 287 287 287 287 287 287 287 286 286 285 285 285 284 284 283 282 281 279 279 279 279 277 277 277 277 276 275 275 275 275 275 274 274 274 273 273 273 273 273 273 273 273 273 273 273 273
295 295 294 294 294 294 294 294 294 294 294 294 293 293 293 293 292 292 292 291 291 291 291 290 290 290 289 289 289 289 288 288 288 288 288 287 287 287 287 287 287 287 287 287 287 286 286 286 285 285 284 284 283 283 282 281 280 279 279 278 277 277 277 276 275 275 275 275 275 274 274 274 273 273 273 273 273 273 273 273 273 273 273 273 273
294 293 293 293 293 293 293 292 292 293 293 293 293 293 293 293 292 292 292 292 291 291 291 290 290 290 290 290 289 289 288 288 288 288 288 287 287 287 287 287 286 286 286 287 287 286 286 285 285 285 284 283 283 282 282 281 280 279 278 278 277 277 276 276 275 275 275 275 274 274 274 274 273 273 273 273 273 273 273 273 273 273 273 273 273
292 292 292 292 291 291 291 291 291 291 291 291 292 292 292 292 292 292 292 292 292 292 291 291 290 290 290 290 289 289 288 288 288 288 287 287 287 287 287 287 286 286 285 286 286 286 286 285 285 284 284 283 282 282 282 281 280 279 278 278 277 276 276 275 275 274 274 274 274 274 274 273 273 273 273 273 273 273 272 272 272 272 272 273 273
292 291 291 291 291 291 291 290 290 290 290 290 291 291 291 291 291 291 291 291 291 291 291 291 291 290 290 290 289 289 289 289 288 288 288 287 287 286 286 286 286 285 285 285 285 285 285 285 284 283 282 282 281 281 281 281 280 279 278 277 277 276 275 274 274 274 274 274 274 274 273 273 273 273 272 272 273 272 272 272 272 272 272 272 272
291 291 291 291 291 291 291 290 290 290 290 290 290 290 290 290 290 290 290 290 290 290 290 290 290 290 289 289 289 289 289 289 289 288 287 287 286 286 285 285 285 285 284 284 283 283 283 283 283 282 281 281 281 280 280 280 280 279 278 277 276 276 275 274 274 274 274 273 274 273 273 273 273 272 272 272 272 272 272 272 272 272 272 271 271
291 291 291 291 291 291 291 291 291 291 291 290 290 290 290 290 290 290 290 290 290 290 290 290 289 289 289 289 288 288 288 288 288 287 287 286 286 285 285 285 284 284 283 282 282 282 282 282 282 281 281 281 281 280 280 280 280 278 277 276 276 275 274 274 274 274 273 273 273 273 273 272 272 272 272 272 272 272 272 272 272 271 271 271 271
291 291 291 291 291 291 291 291 291 290 290 290 290 290 290 290 290 290 290 290 290 290 289 289 289 289 289 289 288 288 288 287 287 287 287 286 285 285 284 284 283 283 283 282 282 282 282 281 281 281 281 281 281 280 279 279 279 278 276 276 275 274 274 274 274 273 273 273 273 273 272 272 272 272 271 272 272 272 272 272 271 271 271 271 271
291 291 291 291 291 291 290 290 290 290 290 290 290 290 290 290 290 290 290 289 289 289 289 289 289 288 288 288 288 288 288 287 286 286 286 285 285 284 284 283 283 282 282 281 281 282 281 281 281 281 280 280 280 280 279 279 278 277 276 275 274 274 274 274 273 273 273 273 272 272 272 272 271 271 271 271 271 271 271 271 271 271 271 271 270
291 291 291 291 291 291 291 290 290 290 290 290 290 290 290 290 290 290 289 289 289 289 288 288 288 288 287 287 287 287 287 287 286 286 285 285 284 284 283 282 282 281 281 280 281 281 281 281 281 280 280 280 280 279 279 278 277 277 276 275 274 274 274 273 273 273 272 272 272 272 271 271 271 271 271 271 271 271 271 271 271 271 271 270 270
291 291 291 291 291 291 291 291 291 291 290 291 290 290 290 290 290 289 289 289 288 288 288 288 287 287 287 287 286 286 286 286 286 286 285 285 284 283 282 282 281 279 279 279 280 280 280 280 280 280 279 279 279 279 278 277 277 276 275 275 274 274 273 273 273 272 272 272 272 271 271 271 271 271 271 271 271 271 271 271 271 271 270 270 269
291 291 291 291 291 291 291 291 291 291 291 291 290 290 290 290 289 289 289 289 289 288 288 288 287 287 287 287 286 286 285 285 285 285 285 284 283 282 281 281 280 279 278 278 279 279 279 279 279 279 279 279 279 278 278 277 276 275 274 274 274 273 273 273 273 272 272 272 271 271 271 271 271 271 270 270 270 270 270 271 271 270 270 269 269
291 291 291 291 291 291 291 291 291 291 291 290 290 290 290 289 289 289 289 289 289 289 288 288 287 287 287 286 286 286 285 285 284 283 283 283 282 281 280 280 279 278 278 278 278 278 278 278 278 278 278 278 278 277 277 276 275 274 274 273 273 273 273 273 272 272 272 272 271 271 271 270 270 270 270 270 270 270 270 270 270 270 269 269 268
291 291 291 291 291 291 291 291 291 290 290 290 290 290 289 289 289 289 289 289 288 288 288 288 287 287 286 286 285 285 284 284 283 282 281 279 279 279 279 278 277 277 277 276 276 277 277 277 277 277 277 277 276 276 276 275 274 274 273 273 273 273 273 272 272 272 272 271 271 271 270 270 270 270 270 270 270 270 270 270 270 270 269 268 268
291 291 291 291 291 291 291 290 290 290 290 290 289 289 289 289 289 289 288 288 288 288 287 287 287 287 286 285 284 284 284 283 283 281 280 278 277 277 277 277 276 276 276 276 276 276 276 276 276 276 276 276 275 275 275 274 274 273 273 273 273 273 272 272 272 272 272 271 271 271 270 270 270 270 270 270 270 270 270 270 270 269 269 268 268
291 291 290 290 290 290 290 290 290 290 290 289 289 289 289 288 288 288 288 288 287 287 287 287 286 286 285 284 284 284 284 283 282 281 280 278 277 276 276 276 276 275 275 275 275 275 275 275 275 275 275 275 274 274 274 273 273 272 272 272 272 272 272 272 272 271 271 271 271 270 270 270 270 270 270 270 270 270 270 270 269 269 268 268 267
290 290 290 290 290 290 290 290 289 289 289 289 288 288 288 288 287 287 287 287 287 286 286 286 285 285 284 283 283 283 283 282 281 280 279 278 277 276 275 275 275 275 275 275 275 275 275 275 274 274 274 274 273 273 273 272 272 272 271 271 271 271 272 272 271 271 271 271 270 270 270 269 269 269 269 270 270 269 269 269 269 268 268 267 267
290 290 290 290 289 289 289 289 289 288 288 288 287 287 287 287 287 286 286 286 286 285 285 285 284 283 283 283 282 282 282 281 281 280 279 278 277 276 275 275 275 275 275 275 275 275 274 274 274 274 273 273 273 272 272 271 271 271 271 270 271 271 271 271 271 271 271 270 270 269 269 269 269 269 269 269 269 269 269 269 268 268 267 267 267
290 290 289 289 289 289 289 288 288 287 287 287 287 287 286 286 286 286 285 285 285 284 284 283 283 282 282 282 281 281 281 281 280 280 279 278 277 276 276 275 275 274 274 274 274 274 274 274 273 273 273 273 272 272 271 271 271 270 270 270 270 271 271 270 270 270 270 270 269 269 269 269 269 269 269 269 269 269 269 269 268 267 267 267 267
289 289 289 289 289 288 288 287 287 287 286 286 286 286 286 285 285 285 284 284 284 283 283 283 282 282 281 281 281 280 280 280 279 278 277 277 276 276 275 275 274 274 274 274 274 274 273 273 273 273 273 272 272 271 271 271 270 270 270 270 270 270 270 270 270 270 269 269 269 268 268 268 268 268 268 269 269 269 269 268 268 267 267 267 267
289 288 288 288 287 287 287 286 286 286 285 285 285 285 285 284 284 284 283 283 283 282 282 282 281 281 280 280 280 279 279 278 278 277 276 276 275 275 274 274 274 274 274 274 274 273 273 273 273 272 272 272 272 271 271 271 270 270 270 270 270 270 270 270 270 269 269 269 268 268 268 268 268 268 268 268 268 268 268 268 267 267 267 267 267
288 287 287 286 286 286 286 285 285 285 285 284 284 284 284 283 283 283 282 282 282 281 281 281 280 279 279 279 278 278 277 277 277 276 276 275 275 275 274 274 274 274 273 273 273 273 273 272 272 272 272 271 271 271 271 270 270 270 270 270 270 270 270 270 269 269 269 268 268 268 268 268 268 268 268 268 268 268 268 267 267 267 267 267 267
286 286 286 285 285 285 285 285 284 284 284 284 283 283 283 282 282 281 281 281 280 280 279 279 279 278 278 277 277 277 276 276 276 275 275 275 274 274 274 274 274 273 273 273 272 272 272 272 271 271 271 271 271 270 270 270 270 270 270 269 269 269 269 269 269 269 269 268 268 268 268 268 268 268 268 268 268 268 267 267 267 267 267 267 267
285 285 285 285 284 284 284 284 284 283 283 283 282 282 281 281 280 280 279 279 279 278 278 278 277 277 277 276 276 276 275 275 275 274 274 274 273 273 273 273 273 273 273 272 272 272 271 271 271 270 270 270 270 270 270 270 270 269 269 269 269 269 269 268 268 268 268 268 268 268 268 268 268 268 268 268 268 267 267 267 267 267 267 267 267
284 284 284 284 283 283 283 283 282 282 281 281 281 280 280 279 279 279 278 278 278 277 277 276 276 276 275 275 275 274 274 274 274 273 273 273 273 273 272 272 272 272 272 272 271 271 271 271 270 270 270 270 270 269 269 269 269 269 269 269 269 269 268 268 268 268 267 267 268 268 268 268 268 268 268 268 267 267 267 266 266 267 267 267 267
283 282 282 282 282 282 282 281 281 280 280 279 279 279 279 278 278 278 277 277 277 276 276 275 275 275 274 274 273 273 273 273 272 272 272 272 272 272 272 272 272 271 271 271 271 270 270 270 270 270 269 269 269 269 269 269 269 269 269 269 268 268 268 268 267 267 267 267 267 267 267 268 268 267 267 267 267 267 266 266 266 267 267 267 267
281 281 281 281 281 280 280 280 279 279 278 278 278 277 277 277 277 276 276 275 275 275 274 274 274 273 273 272 272 272 272 272 271 271 272 271 271 271 271 271 271 271 270 270 270 270 269 269 269 269 269 269 269 268 268 268 268 268 268 268 268 268 268 267 267 267 267 267 267 267 267 267 267 267 267 267 267 266 266 266 266 267 267 267 267
279 279 279 279 279 279 278 278 278 277 277 276 276 276 275 275 275 275 274 274 273 273 273 273 272 272 272 271 271 271 271 271 271 271 271 271 271 271 271 270 270 270 270 269 269 269 269 269 269 269 268 268 268 268 268 268 268 268 268 268 268 267 267 267 267 267 267 267 267 267 267 267 267 267 267 267 266 266 266 266 266 267 267 267 267
Wind_Speed
33 35 36 36 36 35 35 34 34 33 32 31 30 29 28 27 25 25 23 22 21 20 19 17 16 15 14 13 12 11 10 10 8 7 6 4 4 4 5 6 7 8 8 8 9 10 10 11 11 12 12 12 12 12 12 12 13 14 15 17 18 20 22 24 28 33 36 36 38 39 38 40 40 38 38 38 37 36 35 33 32 32 31 30 29
34 36 36 37 37 36 36 36 35 35 34 32 31 30 29 28 27 26 25 23 22 20 20 19 18 17 16 15 15 14 13 11 10 8 7 6 5 6 6 7 7 8 8 9 9 10 11 12 12 12 13 13 12 12 13 13 14 15 16 17 19 20 23 25 28 33 36 37 37 38 38 38 39 38 37 38 38 38 37 34 32 31 30 29 29
34 36 37 37 37 37 37 37 37 36 35 34 33 32 30 29 28 27 26 24 23 22 21 20 20 19 19 18 17 15 14 12 11 10 8 7 7 7 7 7 8 8 9 9 10 11 12 13 13 13 13 13 13 13 14 14 14 15 16 18 20 21 23 25 28 31 35 37 37 38 38 38 38 37 36 37 38 38 37 36 34 32 31 31 32
35 36 36 36 37 37 38 38 38 37 37 36 34 33 32 31 30 28 26 25 24 24 23 22 22 22 21 20 17 16 15 14 12 11 9 8 8 8 8 8 8 9 9 10 11 12 12 13 13 13 13 14 14 14 15 15 16 16 17 19 20 22 24 26 28 30 33 36 37 37 37 37 37 36 35 36 36 37 37 37 37 37 35 34 35
36 37 37 37 38 39 39 39 39 39 38 37 36 35 33 32 31 29 28 27 26 26 25 25 24 23 22 20 18 17 16 15 13 11 10 10 9 9 9 8 9 9 10 11 11 12 13 13 14 14 14 14 15 15 16 16 17 17 18 20 21 23 25 26 28 29 31 34 36 36 36 36 35 34 33 34 36 37 37 38 38 39 39 37 37
38 38 38 38 39 41 41 41 41 41 40 38 37 35 34 33 32 31 30 29 28 28 27 26 25 24 22 21 19 18 17 16 15 13 12 11 10 10 9 9 9 10 10 11 12 12 13 14 14 15 15 15 16 16 17 17 18 19 20 21 22 24 25 26 27 28 30 32 34 35 34 34 34 33 31 32 35 37 38 40 40 39 39 39 39
39 39 39 40 40 41 42 42 41 41 40 39 37 36 35 34 34 32 31 30 30 29 29 27 26 25 23 22 21 20 19 18 16 14 13 12 11 10 9 9 10 10 11 11 12 13 13 14 15 16 16 16 17 18 18 19 20 20 21 22 23 24 26 26 26 27 29 30 32 33 33 32 31 31 31 31 33 35 36 39 42 43 40 40 42
40 40 40 41 41 41 42 42 41 41 40 39 38 37 37 36 35 34 33 32 31 31 30 28 27 26 25 24 23 22 21 19 17 15 14 13 12 11 10 10 10 11 11 11 12 13 14 15 16 16 17 17 18 19 20 20 21 22 23 24 25 25 26 26 26 26 27 29 30 30 31 31 30 30 32 33 35 36 35 35 39 42 41 41 42
41 41 42 42 41 41 42 42 42 41 41 40 39 39 38 38 37 36 35 34 33 32 30 29 28 27 26 25 25 24 22 20 18 16 15 13 12 11 10 10 11 11 11 11 12 13 14 15 16 16 17 18 20 21 21 21 22 23 24 25 26 26 26 26 25 26 26 28 29 29 30 30 30 31 33 34 34 34 33 32 34 37 40 43 43
41 42 43 42 41 41 42 43 42 42 41 41 41 41 40 39 38 37 36 35 34 33 32 31 29 28 28 27 27 26 24 21 19 17 16 15 14 13 11 11 11 11 11 12 12 13 14 15 16 17 18 19 20 21 22 22 23 24 25 26 26 26 26 26 25 24 25 27 27 28 29 30 29 30 33 33 32 31 31 32 36 39 42 45 45
42 42 42 42 41 41 42 43 43 42 42 41 42 42 41 41 40 39 38 37 36 35 33 32 31 30 30 30 29 27 25 22 19 17 17 17 16 14 12 12 12 12 12 12 12 12 13 14 16 17 19 20 21 22 22 22 23 24 25 26 26 26 26 26 25 24 25 26 26 26 27 29 29 29 30 31 31 31 33 35 39 42 42 43 45
42 42 42 41 42 41 41 42 42 42 42 42 43 43 43 43 42 41 41 39 38 36 35 34 33 32 33 32 31 28 25 22 20 18 19 19 18 15 13 13 13 13 12 12 11 12 13 14 15 18 19 21 22 22 22 23 24 24 25 26 26 26 25 25 24 23 23 23 24 24 25 27 28 28 28 30 32 34 36 37 38 40 39 39 41
41 42 42 42 42 42 42 43 43 43 43 42 43 44 44 44 44 43 42 40 38 37 36 36 36 36 36 35 32 29 26 23 21 20 21 21 19 17 16 16 15 14 14 13 12 12 12 13 15 17 19 21 22 23 23 23 24 25 26 26 26 25 25 24 22 20 20 20 22 23 23 24 27 28 28 30 33 34 35 36 36 37 37 36 37
40 41 41 42 42 42 43 44 43 43 43 43 44 45 45 46 45 44 43 41 40 40 39 39 39 39 38 36 33 31 28 25 23 22 23 22 20 19 19 18 17 16 16 14 13 13 13 14 15 17 19 21 22 23 24 24 25 25 26 27 26 25 25 24 21 19 18 18 20 22 23 24 26 28 28 29 30 32 33 35 35 35 35 35 34
38 38 39 40 41 42 43 43 43 43 44 44 45 46 46 46 45 44 44 43 43 42 42 42 42 41 40 37 34 32 30 27 24 24 25 24 24 23 22 20 19 19 18 16 15 15 15 16 17 19 20 21 22 23 24 25 26 26 26 27 27 26 26 24 21 19 18 18 20 23 25 25 25 25 26 26 28 29 30 31 32 33 34 34 32
33 33 34 36 38 39 40 42 43 44 44 45 46 45 45 45 45 45 45 45 45 45 45 44 43 42 40 38 36 35 32 29 26 26 26 27 27 26 25 23 22 22 20 19 17 17 18 18 19 20 21 22 22 23 24 25 26 27 27 27 27 28 27 24 20 19 19 19 21 23 24 23 23 23 23 24 26 28 29 29 29 30 32 33 32
28 29 30 32 33 35 37 40 41 43 44 44 44 43 43 44 45 46 47 48 48 47 46 45 44 43 41 40 39 37 34 31 28 27 27 28 28 28 28 27 26 25 23 22 20 20 21 21 20 21 22 23 24 24 24 25 26 27 27 28 28 28 27 23 21 20 19 19 20 21 21 21 22 21 21 21 23 26 28 27 27 29 31 32 33
25 26 27 28 30 32 34 36 37 38 39 40 41 41 42 43 44 46 48 49 48 48 46 46 45 44 43 42 40 39 36 33 30 28 28 29 30 30 30 30 29 28 26 25 23 22 23 23 22 22 23 24 25 26 25 25 27 27 28 28 29 28 26 23 22 21 19 18 18 19 20 20 21 20 19 20 21 23 25 26 26 28 30 31 32
22 23 24 25 27 28 29 30 32 33 35 36 37 38 39 40 42 44 46 48 48 48 47 47 47 46 45 44 42 41 39 35 32 31 30 31 32 32 32 33 33 31 29 28 26 25 26 26 25 24 24 25 27 27 26 26 27 27 28 28 29 28 26 24 24 22 20 17 17 18 18 19 20 19 18 19 20 21 22 23 25 26 28 29 30
18 19 20 21 22 24 25 26 28 29 30 31 32 33 35 36 38 40 43 45 47 48 49 49 49 48 47 46 45 44 42 39 36 34 33 34 35 34 34 35 36 34 32 30 29 28 28 29 28 26 25 26 28 28 28 27 27 27 28 28 28 27 26 25 24 23 21 19 19 18 18 18 18 18 17 18 19 20 21 22 23 25 27 29 28
14 15 16 17 18 20 21 22 23 24 25 26 28 29 30 32 34 36 38 40 43 46 48 49 50 50 49 48 47 46 45 43 40 38 36 37 37 36 37 38 38 36 34 33 33 31 31 31 29 27 27 28 29 30 29 28 27 27 28 28 27 26 27 27 24 22 21 21 20 19 19 19 18 17 18 18 18 19 19 20 22 23 25 27 28
12 12 13 14 15 17 18 18 19 20 22 23 25 26 27 28 30 32 34 36 38 41 44 46 49 50 51 51 50 49 48 46 45 42 40 39 39 39 39 40 40 39 37 37 36 35 33 32 31 29 29 30 30 30 30 29 27 27 29 28 26 26 28 28 24 22 22 22 21 20 20 20 19 18 18 19 18 19 19 20 21 22 23 24 26
11 12 13 14 15 16 16 17 17 18 19 20 22 23 24 26 28 29 31 33 35 37 39 41 44 47 49 51 52 52 51 50 48 46 44 42 41 41 42 42 42 41 41 40 39 38 36 34 33 32 31 32 31 30 31 30 28 28 29 27 25 27 28 26 23 22 22 22 22 21 20 20 19 19 19 19 19 19 19 20 21 22 23 24 24
12 13 14 15 15 16 16 16 16 17 18 19 20 22 23 24 26 27 28 30 32 33 35 37 39 41 44 46 49 50 52 52 51 50 48 46 45 44 44 44 45 44 44 44 42 40 38 36 35 34 34 34 32 31 32 31 29 29 30 27 26 28 28 25 23 23 23 22 22 22 21 20 20 20 20 20 20 20 20 20 21 22 24 25 24
12 12 12 13 13 13 14 14 15 16 17 19 20 21 22 23 24 25 27 28 30 31 32 34 36 37 39 41 43 45 48 51 51 51 50 49 48 47 46 46 46 47 48 47 45 43 40 38 38 37 36 35 34 32 33 32 29 29 29 28 28 28 27 24 24 24 23 23 23 22 21 20 20 21 21 21 21 21 21 21 21 22 24 25 25
10 10 10 11 11 12 13 14 15 16 17 18 19 20 20 21 22 24 25 27 28 29 31 32 34 35 37 38 39 41 43 45 47 49 51 51 50 49 48 48 48 48 49 49 48 46 43 42 41 40 38 36 34 33 34 33 31 30 30 30 30 29 27 26 25 25 24 23 23 22 21 20 21 21 21 22 22 22 23 24 23 24 25 27 27
10 10 10 11 12 13 14 15 16 17 17 18 18 19 20 21 22 23 24 26 27 28 30 32 33 35 36 36 37 38 39 41 43 44 46 48 48 49 49 49 49 49 50 50 49 49 47 45 44 43 40 36 34 34 35 34 33 31 31 31 31 30 29 27 26 26 25 23 23 22 21 21 21 21 21 22 22 22 24 25 26 26 27 28 29
10 11 11 12 13 14 15 15 16 17 18 18 19 20 20 21 22 23 24 25 26 28 29 31 32 32 33 33 34 36 37 38 39 39 39 40 42 44 45 47 48 49 50 50 49 48 48 47 46 44 41 38 35 35 36 35 33 32 31 31 31 31 30 29 28 27 25 24 23 23 22 22 22 22 22 22 22 22 24 25 26 27 28 28 29
12 12 13 13 14 14 15 15 16 16 17 18 19 20 21 22 23 24 24 25 26 28 29 30 30 31 31 32 33 34 35 35 34 35 35 36 36 37 38 40 42 44 45 46 47 47 47 46 45 43 42 40 38 37 36 35 34 34 32 31 31 31 30 29 29 27 25 24 24 23 22 23 22 22 23 23 22 22 23 24 26 27 28 28 29
14 14 15 15 15 16 16 17 18 18 19 20 20 21 22 23 24 25 25 26 27 28 29 29 30 31 32 32 32 33 33 33 34 34 35 35 35 34 34 34 35 36 37 39 42 44 45 45 44 43 43 42 41 38 37 36 35 34 32 31 32 32 31 30 29 27 25 25 24 24 23 24 23 22 23 24 23 22 22 24 25 27 28 29 29
17 17 17 18 18 18 19 20 20 21 22 23 24 25 26 26 27 28 28 28 28 29 29 30 30 31 32 32 32 33 33 33 34 35 36 36 35 35 34 33 33 33 32 32 36 41 43 44 45 44 43 42 42 39 37 35 35 33 31 31 31 31 31 30 28 26 26 25 25 24 24 24 24 23 24 25 25 23 23 23 24 26 27 28 29
19 19 20 20 21 21 22 23 24 25 26 26 27 28 29 29 30 30 30 31 31 31 31 31 31 31 32 32 32 32 32 32 33 34 35 36 36 35 35 34 32 30 29 30 34 38 41 43 44 44 42 41 41 39 36 35 34 31 30 30 31 31 30 29 27 27 27 26 25 25 25 24 24 24 24 25 25 25 24 23 24 25 26 27 28
21 21 22 23 23 24 24 24 25 25 26 26 27 28 28 29 30 29 29 30 31 32 32 32 31 31 31 31 32 33 33 32 33 33 33 34 34 34 33 31 29 26 27 30 35 37 39 41 42 42 41 40 39 37 35 34 32 30 28 29 29 29 29 28 28 28 28 27 26 25 24 24 25 25 25 25 25 25 25 25 25 25 26 27 27
21 22 23 23 24 24 24 24 24 24 25 26 27 27 28 28 29 29 29 29 30 30 31 31 30 30 30 30 31 31 32 32 33 32 32 31 31 30 28 26 24 24 25 29 33 35 36 38 39 39 39 38 37 35 34 32 30 28 28 27 28 28 28 28 30 30 29 27 27 26 25 24 25 25 26 26 25 25 26 25 25 26 27 27 27
21 21 22 22 23 23 23 24 25 25 26 27 28 28 29 29 29 30 30 30 30 30 29 29 29 29 30 30 30 30 29 29 30 32 32 30 26 22 22 23 23 24 26 29 32 33 34 35 36 36 36 35 34 34 32 30 28 28 28 28 28 29 29 29 30 30 29 28 28 26 25 25 25 25 26 26 26 26 26 25 25 26 27 27 27
21 21 22 22 23 23 24 25 25 26 27 27 28 28 29 29 30 30 30 30 30 29 29 28 27 28 29 29 29 28 28 27 26 27 29 29 24 19 20 23 25 25 27 28 30 31 32 33 33 33 33 32 32 31 30 30 29 29 29 29 30 31 30 30 30 29 29 29 28 26 26 25 25 25 27 27 27 27 27 26 25 26 27 27 26
21 22 22 22 23 24 25 25 26 26 27 27 28 28 29 29 29 29 29 30 29 29 29 28 27 27 27 26 26 26 26 26 24 23 24 25 23 19 19 22 24 25 26 27 27 29 30 31 31 31 31 31 31 31 31 32 32 31 30 31 32 32 31 30 30 29 29 29 28 26 26 25 25 26 27 28 28 28 27 27 26 26 26 26 26
21 22 22 23 23 24 24 25 26 26 27 27 28 28 29 29 29 29 29 29 29 29 28 28 27 27 26 24 24 25 25 25 25 23 22 22 22 20 19 20 22 24 25 25 25 25 26 27 28 29 30 31 32 33 33 33 33 32 32 33 34 34 33 31 30 29 29 28 27 26 26 26 25 26 28 29 29 29 28 27 27 27 26 25 25
21 21 21 22 22 23 24 24 25 26 27 28 28 29 29 30 30 30 29 29 29 28 28 27 27 26 25 23 23 24 24 24 25 24 23 22 22 22 21 21 22 23 24 25 26 26 27 27 27 28 30 31 32 33 33 32 31 31 32 34 35 35 33 31 30 29 28 28 27 26 26 26 26 26 28 29 29 29 28 28 28 28 27 25 24
20 21 21 21 22 23 23 24 25 26 27 28 29 29 29 29 29 29 29 28 28 27 27 26 25 24 23 22 22 22 23 23 23 23 22 22 22 23 24 24 24 25 26 27 28 29 29 30 30 31 32 32 32 32 32 31 31 32 32 33 34 33 32 31 30 29 28 27 26 26 26 26 26 27 28 28 29 29 29 28 28 28 26 25 24
21 21 22 22 23 23 24 25 26 26 27 28 28 28 28 28 28 27 27 27 26 25 25 24 23 21 21 21 21 21 22 22 22 22 23 22 22 24 26 27 28 30 30 31 31 31 32 32 33 33 33 33 32 32 32 33 32 31 31 32 32 32 31 30 30 29 27 27 26 26 26 26 26 27 28 28 29 29 29 29 28 27 25 24 23
22 22 22 23 24 24 25 26 26 26 26 26 26 27 27 26 26 26 25 25 24 23 23 22 21 20 20 20 20 20 22 22 21 21 22 22 22 23 24 25 27 29 30 31 32 32 33 34 34 34 35 35 35 35 34 33 32 31 31 31 31 31 30 29 29 28 27 26 26 26 26 25 26 27 28 29 29 29 29 29 28 27 25 23 23
22 22 23 24 25 25 25 25 25 25 25 25 25 25 25 25 24 24 23 23 22 22 21 20 20 19 19 19 20 20 21 21 20 19 19 19 20 20 20 21 23 25 26 28 29 30 31 31 32 33 33 34 34 34 33 32 32 31 32 32 32 31 30 29 28 28 27 27 26 26 25 26 27 28 29 29 29 29 29 28 27 26 24 23 22
22 23 24 24 24 24 24 24 24 23 23 23 23 23 22 22 22 21 21 21 20 20 20 19 19 19 19 19 19 19 20 20 20 19 18 18 18 19 19 20 21 23 24 25 26 28 29 30 30 30 31 31 31 31 31 31 31 31 32 32 32 31 30 29 28 27 27 27 27 26 26 27 28 28 29 29 29 29 28 28 27 26 24 23 22
22 23 23 23 23 23 22 22 21 21 21 20 20 20 20 20 20 19 19 19 19 19 19 19 18 18 18 19 19 19 19 20 20 20 19 18 18 18 19 20 21 22 23 23 24 26 27 27 28 29 29 29 29 29 29 29 29 30 30 30 30 30 29 28 27 27 27 28 28 28 28 28 28 29 29 29 29 29 28 27 26 26 24 23 22
21 21 21 21 20 20 20 19 19 19 18 18 18 18 18 18 18 18 18 18 18 18 18 18 18 18 18 18 19 19 19 20 20 20 20 19 18 18 19 20 21 22 22 22 23 24 25 26 27 27 27 28 28 28 28 28 28 28 28 28 28 28 27 27 27 27 28 28 29 29 30 30 30 30 30 30 29 29 28 27 26 25 24 23 22
19 19 18 18 18 17 17 17 17 17 17 17 17 18 18 18 18 18 18 18 18 18 18 18 18 18 18 18 19 19 19 19 19 19 19 19 19 19 20 20 21 21 22 22 22 23 24 24 25 25 26 27 27 27 27 27 27 27 27 27 28 27 26 26 27 27 27 28 29 30 30 31 31 31 30 30 29 28 27 26 25 24 23 22 21
17 17 16 16 16 16 16 17 17 17 17 17 17 17 18 18 18 18 18 18 18 18 18 18 18 18 18 18 18 19 18 18 18 18 19 19 19 20 21 21 21 21 21 21 21 22 23 23 24 25 25 25 26 26 26 26 27 27 27 27 27 27 27 27 28 28 28 28 29 30 31 31 31 31 30 30 29 28 27 26 25 24 23 22 21
15 15 15 15 15 15 16 16 17 17 17 17 18 18 18 18 18 18 18 18 18 18 18 18 18 18 18 18 18 18 18 18 18 18 18 19 19 20 21 21 21 21 21 20 20 20 21 22 23 24 24 25 25 25 26 26 26 26 27 27 27 27 28 28 29 29 29 29 29 30 30 31 31 30 30 29 29 28 27 26 25 24 23 22 21
15 15 15 15 15 15 16 16 17 17 17 17 17 17 18 18 18 18 18 18 18 18 18 18 18 18 18 17 17 17 17 17 18 18 18 18 19 20 20 20 20 20 20 20 20 20 20 21 22 23 23 24 24 25 25 25 26 26 27 27 27 27 28 28 29 29 29 29 29 29 30 30 31 31 30 29 28 28 27 26 25 24 23 22 21
15 15 14 15 15 15 15 16 16 16 17 17 17 17 17 17 17 17 17 17 17 17 17 17 17 17 17 17 17 17 18 18 18 18 18 18 19 19 19 20 20 20 20 20 20 20 20 21 21 22 22 23 23 24 24 24 25 25 26 26 27 27 28 28 28 28 29 29 29 30 30 30 31 31 29 28 28 27 26 25 25 24 23 22 21
Wind_Direction
205 203 201 198 197 196 197 198 200 203 204 205 206 206 206 208 208 208 208 207 206 204 204 203 201 202 203 203 205 208 208 206 208 212 217 227 248 272 282 284 284 283 281 281 284 287 288 290 292 293 294 296 298 301 306 312 317 322 324 325 327 327 327 327 324 325 328 327 326 327 328 327 327 329 331 331 331 330 329 330 328 325 324 323 321
206 204 204 203 200 199 200 201 203 205 207 207 208 209 210 210 211 212 211 209 208 207 207 206 204 204 205 206 207 206 206 208 213 217 221 231 248 262 272 280 282 280 278 280 283 285 288 289 290 290 291 293 296 299 304 309 313 317 319 321 323 324 324 325 323 324 326 328 327 327 328 328 328 330 332 331 329 328 328 329 328 326 325 323 322
209 208 208 207 204 203 203 205 207 208 209 210 210 211 212 212 213 214 212 210 210 210 210 210 209 207 206 207 206 205 207 212 215 218 222 232 244 256 267 276 279 278 277 279 281 284 287 288 288 290 290 291 295 298 302 306 309 312 315 317 320 321 322 323 322 322 324 327 327 326 327 329 329 330 331 330 328 327 327 328 327 326 326 325 323
213 211 212 212 209 207 207 208 210 211 212 213 213 213 214 214 215 214 212 212 213 213 213 213 211 210 208 208 208 210 213 214 215 219 224 233 245 255 264 270 273 275 276 277 282 284 285 286 286 287 288 290 293 295 298 302 305 309 312 314 317 319 320 321 322 322 322 324 326 326 326 328 328 330 330 328 327 326 326 327 327 327 328 329 327
215 213 214 214 213 212 210 211 212 214 215 216 215 215 215 216 216 215 214 215 215 216 217 216 214 212 212 212 214 215 216 216 218 223 228 235 243 252 260 264 267 272 274 276 282 284 284 286 286 286 287 288 290 293 296 299 303 306 310 313 315 317 319 320 322 322 321 322 324 325 325 326 327 329 329 328 326 325 325 327 329 330 331 331 330
217 216 216 216 216 215 214 214 215 216 217 218 217 217 218 218 218 217 217 217 218 220 221 220 217 215 214 215 217 218 218 219 220 224 227 234 242 250 256 260 265 270 272 276 281 285 286 286 285 285 286 287 289 292 295 298 302 305 308 312 314 315 317 319 320 321 320 320 321 323 324 324 325 327 329 329 326 326 326 327 329 332 333 332 332
220 218 218 219 219 218 218 218 218 218 219 220 220 220 220 220 221 220 220 220 221 223 223 223 221 219 217 217 218 219 219 220 221 224 227 233 241 248 252 257 263 267 270 276 282 286 288 286 285 285 286 289 292 293 296 300 303 306 308 310 312 313 316 317 319 319 319 319 319 319 320 320 322 326 328 329 328 330 331 330 329 333 335 335 336
222 220 220 221 222 222 222 221 220 221 221 222 222 223 223 223 223 222 222 223 224 225 225 225 224 221 219 219 220 220 220 221 224 228 232 236 242 246 250 254 259 265 269 276 283 287 289 287 286 288 289 293 295 296 298 301 303 307 308 310 311 313 314 315 317 317 316 316 315 316 316 319 324 327 328 331 332 332 334 332 329 331 333 331 332
223 222 223 223 224 224 224 224 223 223 223 223 224 225 225 225 224 224 224 225 226 226 226 226 225 223 222 222 223 223 222 223 225 229 235 240 245 248 250 253 258 264 270 278 286 289 291 290 290 291 293 294 296 297 299 301 305 307 308 310 311 311 312 312 313 313 313 312 313 315 318 322 327 329 330 334 334 331 332 330 326 326 326 326 328
226 225 226 226 226 227 227 227 226 225 225 225 226 227 227 227 227 226 226 226 227 227 226 226 224 224 226 227 227 225 224 224 224 229 237 244 248 249 250 254 260 266 272 280 287 291 294 296 295 295 295 295 295 296 298 301 305 306 308 309 309 309 310 310 308 309 310 312 315 319 320 323 328 330 330 331 330 327 326 325 322 322 324 326 331
229 229 229 229 229 230 230 230 229 228 228 228 228 229 229 229 229 228 228 228 227 227 228 226 225 226 229 230 228 227 226 224 225 233 243 248 250 249 249 255 261 266 273 278 285 293 298 300 300 298 296 295 294 295 297 300 303 305 306 306 307 307 308 307 307 309 311 314 316 317 318 321 325 327 326 325 324 321 319 319 319 321 324 326 329
233 233 234 233 234 234 234 234 233 232 231 231 231 231 231 231 231 230 229 229 229 229 229 227 228 231 231 228 227 228 227 225 228 239 249 250 249 249 250 256 262 265 270 274 282 293 300 303 304 301 297 294 294 294 297 299 302 303 304 304 305 305 304 303 305 307 309 310 309 310 313 317 319 319 320 319 319 318 318 319 319 319 322 324 326
236 237 238 238 238 238 238 238 236 235 234 234 234 233 232 233 232 232 231 231 231 231 230 231 233 234 231 228 228 228 227 227 232 245 252 250 248 251 254 257 260 262 266 270 277 288 297 303 304 301 297 295 295 295 296 299 301 302 303 303 303 302 299 297 298 300 301 301 302 306 311 312 312 313 315 316 316 318 319 319 319 320 322 324 327
240 241 242 243 243 241 241 240 239 238 238 237 236 235 234 234 234 234 233 233 233 233 233 235 237 234 230 228 229 229 229 230 237 249 252 249 251 256 256 254 256 259 263 268 273 281 289 295 298 297 295 295 295 295 296 299 300 301 301 300 301 299 295 293 295 298 299 300 302 304 306 306 307 310 313 313 314 315 316 317 320 322 322 324 328
244 245 247 247 246 244 244 244 242 242 240 239 239 237 236 236 235 236 236 236 237 237 238 238 237 233 230 230 230 231 231 232 240 250 252 251 255 258 256 253 255 258 261 264 269 275 281 287 291 291 292 293 294 294 296 297 298 299 299 298 298 296 292 294 300 305 307 306 303 301 303 304 305 307 310 312 313 313 314 318 321 321 320 322 327
246 247 249 249 249 248 248 247 245 243 242 241 241 240 239 239 238 238 238 239 239 239 239 238 236 234 233 233 233 234 234 234 241 251 255 254 256 257 257 256 256 256 258 260 264 270 275 280 285 288 291 292 292 293 294 296 297 296 296 296 294 294 297 302 307 308 307 305 301 299 300 301 301 304 308 311 312 312 314 318 321 319 319 323 329
242 244 247 248 249 250 249 248 247 246 246 246 246 246 245 243 241 240 240 240 240 240 240 238 237 236 236 236 236 237 236 236 243 253 258 256 255 257 261 262 259 257 257 259 262 268 272 276 281 286 291 292 292 292 292 293 295 295 295 295 294 296 302 307 306 304 304 302 298 295 294 295 297 303 307 309 310 310 313 319 322 321 322 326 331
240 242 245 247 249 250 251 251 252 252 253 253 254 253 250 247 245 244 244 244 244 244 243 241 239 239 238 238 239 240 239 239 245 254 258 257 256 260 264 264 262 260 260 261 264 267 271 275 279 284 290 292 291 291 290 291 293 294 293 293 295 298 302 303 301 300 300 298 294 291 291 294 299 304 307 309 309 310 313 318 322 322 323 327 329
243 246 250 252 253 255 256 257 258 258 258 259 259 258 256 254 251 249 248 248 248 247 245 243 242 241 241 241 241 241 241 240 244 252 256 255 257 262 265 263 262 262 263 264 267 268 271 275 278 282 287 290 290 290 290 289 290 291 291 291 294 298 299 299 298 299 299 295 290 289 292 295 299 303 307 308 309 310 314 318 320 321 322 324 327
252 255 259 260 260 261 260 261 261 261 262 263 263 263 261 258 256 254 253 252 251 249 248 246 245 245 244 244 243 243 243 243 244 249 253 254 256 261 264 263 263 264 266 267 268 269 271 274 278 282 285 287 288 289 289 288 287 288 288 290 293 295 294 293 295 298 298 295 293 295 296 295 297 302 306 306 306 309 313 316 318 319 320 322 325
258 259 260 259 260 260 261 261 263 264 265 266 265 264 263 261 260 259 258 256 255 254 252 250 249 248 247 246 246 246 246 246 246 248 251 253 255 259 263 263 264 265 267 268 269 269 270 273 277 280 282 284 286 288 288 287 286 285 286 287 290 291 289 291 295 297 296 296 297 299 298 296 299 303 304 304 304 307 311 314 315 317 319 321 323
248 249 251 252 254 256 258 260 261 263 264 264 263 263 263 263 262 262 261 260 258 258 257 255 254 252 250 249 248 248 249 249 248 248 250 253 255 258 262 264 263 264 266 267 269 270 271 273 275 277 279 281 283 285 287 286 283 281 282 283 284 284 286 291 296 297 295 295 296 297 295 294 297 301 301 300 302 305 308 312 314 315 317 319 321
230 233 236 239 242 246 249 252 255 257 258 258 260 261 261 261 261 261 261 261 260 260 259 258 257 257 255 253 252 252 251 251 251 250 251 253 255 258 261 263 263 264 266 268 270 271 271 272 273 275 276 278 280 282 283 283 280 278 279 280 278 279 283 290 293 291 290 291 291 291 290 291 294 297 297 297 298 301 305 310 313 313 314 317 319
223 227 229 232 235 239 243 246 248 250 251 253 255 257 258 258 259 260 260 259 259 259 259 258 258 258 257 256 255 254 254 253 253 253 253 253 255 258 259 261 264 266 267 269 270 270 271 272 273 274 274 275 277 279 280 279 277 276 278 278 276 277 283 287 287 285 285 286 287 287 287 288 292 294 295 296 297 299 303 307 311 312 312 314 318
229 231 233 235 239 241 244 247 248 249 249 251 253 254 256 257 257 257 257 257 257 257 257 257 257 257 257 257 256 256 256 256 256 256 256 255 255 256 258 260 263 266 268 270 270 271 272 272 272 272 272 273 275 276 277 277 274 273 276 277 276 278 281 282 281 281 282 283 283 284 285 287 290 293 294 296 297 300 303 305 308 309 309 311 315
239 240 243 247 249 251 253 254 254 254 254 255 256 256 256 257 256 256 256 255 256 256 256 256 257 257 257 257 257 258 259 259 259 259 258 257 257 257 259 260 261 263 266 269 272 273 273 272 272 272 272 272 273 274 275 276 275 274 276 277 278 279 279 278 277 278 280 280 280 281 283 285 288 290 292 295 298 301 304 306 307 309 310 312 314
249 252 256 258 258 259 261 261 261 261 261 261 261 259 258 258 256 256 255 255 255 255 256 257 258 258 259 260 262 264 264 264 263 262 262 262 262 261 261 261 261 261 263 267 271 273 275 275 275 275 274 272 272 272 274 276 277 277 277 276 277 278 277 276 276 276 277 278 278 279 281 283 285 288 289 292 296 301 303 305 308 310 312 313 315
252 254 256 258 259 261 263 263 263 264 264 264 263 263 262 262 262 262 263 263 262 262 263 264 265 267 269 270 271 272 271 270 270 271 271 271 270 268 265 264 263 263 263 265 267 271 273 274 274 275 275 275 274 274 275 277 278 278 276 275 276 276 274 274 274 274 275 276 276 278 280 281 283 286 288 289 293 297 300 303 306 309 311 313 315
250 253 254 257 260 261 263 265 266 267 268 268 267 267 267 267 268 269 270 269 269 268 269 270 271 272 272 273 272 272 272 272 273 275 275 274 272 270 267 266 265 265 264 264 265 266 268 269 271 273 274 274 275 275 276 278 279 277 275 274 274 273 271 270 272 273 273 274 276 278 279 280 282 285 287 289 291 294 298 302 305 308 310 312 314
250 253 255 258 260 262 264 266 268 270 271 272 273 274 274 274 275 275 275 274 274 273 273 273 274 273 272 272 272 273 273 274 275 275 274 273 272 270 268 267 265 264 262 261 261 262 263 264 266 268 269 270 272 273 274 276 277 276 275 274 273 271 269 268 270 272 273 274 276 278 278 280 282 284 285 288 290 293 296 300 304 307 310 311 314
250 252 255 258 260 262 265 266 268 270 271 272 273 274 275 276 276 277 278 278 278 277 277 276 276 275 275 275 275 275 276 276 277 276 276 276 275 274 272 269 266 264 263 260 259 259 259 260 261 263 264 267 271 272 273 274 275 274 273 272 270 269 268 268 270 272 273 274 275 277 278 280 282 284 285 287 290 293 296 299 302 306 308 310 312
252 254 257 259 261 263 265 266 268 270 271 272 273 274 275 276 277 277 277 277 276 275 274 273 273 273 274 274 274 274 274 274 275 275 276 277 276 275 274 272 269 268 265 260 256 255 255 257 260 262 264 266 270 272 272 273 272 272 270 268 267 268 268 270 271 271 271 272 273 274 276 279 281 283 285 287 290 293 296 300 303 305 307 309 311
257 259 261 262 264 266 267 269 271 272 274 275 275 276 276 276 276 275 273 272 271 271 270 270 270 270 270 271 272 272 272 271 271 271 272 273 274 275 275 275 273 267 260 255 254 254 255 257 260 263 265 268 270 272 272 271 269 269 268 267 268 270 270 270 270 269 270 271 272 272 274 277 279 282 284 286 289 293 297 300 303 305 308 309 310
262 263 264 266 267 269 270 272 273 274 275 275 275 276 276 275 275 274 272 270 270 270 270 271 271 270 269 268 268 269 270 271 271 271 269 268 270 273 275 274 269 261 255 254 255 256 256 258 260 263 266 269 272 272 272 270 270 270 270 271 273 273 271 268 267 268 269 270 270 271 273 275 278 281 283 286 288 292 295 299 303 306 308 309 309
267 267 268 269 270 271 273 274 275 275 276 276 277 278 278 277 277 276 276 276 275 274 273 272 272 271 271 270 269 268 268 269 271 273 274 272 271 270 269 265 260 253 249 250 254 256 256 258 261 264 267 269 271 272 272 274 275 275 273 274 276 276 271 266 264 265 267 267 268 270 272 275 277 280 283 286 288 290 293 296 301 305 306 307 308
271 272 274 275 276 277 278 278 279 280 279 279 280 279 279 279 279 279 280 279 279 278 277 275 273 271 271 271 272 272 272 270 268 269 272 276 275 269 261 259 258 254 251 250 253 257 260 262 265 267 269 270 272 274 275 277 279 277 274 272 274 276 272 266 263 263 264 265 266 269 271 274 277 279 281 284 287 289 292 296 300 302 303 304 305
273 274 276 278 279 280 281 281 282 282 282 281 281 280 280 280 280 280 279 279 278 278 277 276 274 272 271 271 271 272 271 270 267 262 263 268 271 266 257 256 257 257 256 254 254 256 260 264 267 269 272 273 274 275 276 277 278 277 273 270 272 275 273 267 263 262 262 263 265 267 270 273 275 277 279 282 285 287 291 295 298 300 301 301 302
273 274 276 277 277 277 278 278 279 279 280 281 281 280 280 279 279 278 278 277 277 276 276 275 274 273 272 270 268 267 265 265 264 259 254 256 260 259 255 254 255 257 260 261 262 262 263 265 267 269 271 272 272 273 274 276 276 274 270 268 270 273 272 267 263 261 261 262 264 266 269 271 273 275 277 280 283 286 290 294 297 298 299 299 299
273 274 274 274 274 275 275 275 276 277 278 279 279 278 278 278 277 277 277 277 277 276 276 276 275 274 273 270 265 264 263 261 260 258 252 248 250 253 254 254 255 256 259 262 265 267 268 269 271 271 272 272 273 274 276 278 277 274 271 270 271 272 269 265 263 262 262 262 264 265 267 269 271 273 275 278 282 286 289 292 295 296 297 297 297
275 275 275 275 275 275 274 275 276 276 277 277 277 277 277 277 277 278 277 277 277 277 276 276 275 273 271 268 265 263 262 259 257 257 253 248 245 244 245 247 249 250 253 255 258 260 263 264 267 269 271 273 274 275 277 279 278 276 273 272 271 270 267 264 263 262 262 262 263 265 267 269 271 272 274 278 281 284 288 291 293 294 295 296 296
274 275 275 275 275 275 275 275 276 276 276 277 277 277 277 277 277 277 276 276 276 275 274 274 273 270 269 267 265 264 262 260 258 256 254 251 246 241 239 240 242 244 247 250 253 256 258 260 262 264 266 268 270 271 273 274 274 274 272 272 271 269 266 264 264 263 263 263 264 265 267 269 271 272 274 277 280 283 287 290 292 292 293 294 295
272 272 274 274 275 276 276 276 277 277 277 277 276 276 276 275 275 274 274 273 273 273 272 272 271 270 268 267 265 264 263 262 260 258 257 255 251 247 243 242 243 245 248 251 254 257 259 261 263 264 265 266 267 268 269 269 269 269 269 269 270 269 267 265 264 264 263 263 264 266 269 270 271 272 274 276 279 283 286 288 290 290 290 291 291
270 271 273 273 275 276 276 276 277 276 276 276 276 275 275 274 274 274 273 273 272 272 272 271 271 269 268 267 265 264 266 265 263 259 257 255 253 251 249 247 247 249 251 254 257 259 261 263 264 264 265 266 266 267 268 268 267 266 267 267 268 267 266 265 264 263 264 265 266 267 268 268 269 271 274 277 280 282 285 287 288 288 288 288 289
270 272 273 273 274 274 274 274 274 274 274 274 274 273 273 273 272 272 272 271 271 270 269 269 268 267 266 265 264 263 264 265 263 259 255 252 251 252 252 251 252 253 255 257 259 261 262 264 265 265 266 266 267 267 268 268 268 268 267 267 267 266 265 264 263 263 264 265 266 266 267 267 269 271 274 276 279 281 284 285 286 285 286 287 288
271 272 272 272 272 272 273 273 274 274 274 274 273 273 272 271 271 270 270 269 269 268 268 267 267 265 264 264 264 262 262 263 265 264 262 260 258 257 257 258 259 260 261 263 263 264 265 267 267 268 268 269 269 270 270 270 269 269 268 267 267 267 266 265 264 262 261 263 265 266 268 269 270 272 273 275 278 280 282 283 284 284 285 285 287
270 270 270 271 271 273 274 275 274 274 274 273 272 271 270 269 269 268 268 267 267 267 267 266 266 266 264 263 264 263 263 264 266 268 270 270 269 268 266 266 266 267 267 267 267 268 268 269 270 270 271 271 271 271 271 271 270 269 268 267 267 267 267 266 264 262 262 263 265 267 268 269 271 272 274 276 277 279 280 281 281 281 282 284 285
267 267 267 268 270 271 272 273 273 273 272 270 270 269 268 267 266 265 265 265 265 266 266 267 266 266 266 266 265 266 266 267 269 271 273 275 275 275 275 274 274 273 273 272 271 271 271 271 271 271 271 271 272 272 271 271 269 268 267 267 266 266 266 265 263 263 263 263 264 266 267 269 270 272 273 275 277 278 279 279 278 278 280 282 284
264 264 264 266 267 269 270 271 272 271 270 269 268 267 266 266 265 265 266 267 267 267 268 269 269 269 269 269 269 269 270 270 272 273 275 276 277 278 278 278 278 278 278 277 276 275 274 273 273 273 272 272 272 272 272 271 270 269 268 268 267 267 267 266 265 265 264 264 265 266 267 268 270 271 273 274 276 277 277 276 275 276 278 279 282
263 263 264 266 267 268 269 270 269 269 268 268 267 267 267 267 267 267 268 269 269 269 269 270 270 271 271 271 272 273 274 275 276 276 277 277 278 279 279 280 281 281 281 280 278 277 276 276 275 274 274 273 273 273 273 272 271 270 270 269 268 268 267 267 267 267 267 267 267 267 268 269 269 270 272 273 275 275 275 273 273 273 274 276 279
261 261 262 264 264 264 265 266 266 266 268 268 268 269 269 269 269 269 270 270 270 270 270 270 271 271 272 273 274 276 277 278 278 278 278 278 278 278 278 279 280 280 281 281 279 278 277 277 276 276 276 275 275 274 274 274 273 272 271 270 269 268 267 267 268 268 269 269 269 269 268 269 269 270 271 272 272 273 273 272 271 271 272 274 277
261 262 263 264 264 265 265 266 267 268 269 269 270 270 270 270 271 271 271 271 271 271 271 272 273 273 275 276 276 277 278 278 278 278 278 277 277 278 278 279 280 280 281 282 282 281 280 279 279 278 278 277 277 277 276 275 275 274 272 271 270 269 268 268 268 268 269 270 269 269 268 268 269 270 270 270 271 271 271 270 269 270 272 274 276